www.pogodaiklimat.ru

Погода и климат >> Архив погоды >> Филиппины >> Хинатуан


ПОГОДА в Хинатуане

  • Прогноз погоды в Хинатуане
  • Монитор погоды в Хинатуане

АРХИВ ПОГОДЫ в Хинатуане

Время (UTC), дата Ветер
(напр.,м/с)
 
Видим.   Явления Облачность Т
(С)
Тd
(С)
f
(%)
Тe
(С)
Тes
(С)
Комфортность P
(гПа)
Po
(гПа)
Тmin
(С)
Tmax
(С)
R
(мм)
R24
(мм)
S
(см)
00 18.03 З 2 8000 м слаб. дождь 10/5 540 м
[Sc As op]
+25.0 +24.2 95 +34 +35 очень
душно
1012.4 1012.0 +24.0 30
03 18.03 СВ 7 5000 м дождь 10/3 500 м
[Cb cap As op]
+25.7 +23.8 89 +35 +36 очень
душно
1011.8 1011.4 13
06 18.03 С 3 15 км {дождь} 10/3 600 м
[Cu Sc Ac As Cs]
+27.6 +24.4 83 +39 +43 очень
душно
1009.3 1008.9 23
09 18.03 З 1 8000 м слаб. дождь 10/3 540 м
[Sc As op]
+24.6 +22.5 88 +32 +32 очень
душно
1010.2 1009.8 33
12 18.03 З 1 8000 м ливневой дождь 10/3 540 м
[Cu Sc Ac As]
+24.2 +23.1 94 +32 +32 очень
душно
1011.4 1011.0 +28.0 34
15 18.03 З 2 8000 м слаб. дождь 10/3 540 м
[St As op]
+24.0 +23.5 97 +32 +32 очень
душно
1011.3 1010.9 22
18 18.03 СЗ 2 10 км слаб. ливневой дождь 10/3 540 м
[Cu Sc As op]
+25.0 +23.9 94 +34 +34 очень
душно
1009.3 1008.9 46
21 18.03 СВ 3 10 км слаб. ливневой дождь 10/4 540 м
[Cu Sc As op]
+25.6 +24.8 95 +36 +36 очень
душно
1009.2 1008.8 4
00 19.03 В 3 10 км в посл. час ливневой дождь 9/3 570 м
[Cb cap Ac As]
+26.4 +25.3 94 +38 +40 очень
душно
1011.5 1011.1 +23.5 121
03 19.03 СВ 4 15 км 9/4 570 м
[Cu med, cong Ac As Cs]
+28.5 +24.5 79 +40 +45 очень
душно
1011.1 1010.7
06 19.03 В 4 15 км в посл. час ливневой дождь 5/3 570 м
[Cb cap Cs]
+28.0 +25.1 84 +40 +47 очень
душно
1009.0 1008.6 0.4
09 19.03 СВ 2 12 км осадки на расстоянии 6/3 570 м
[Cb cap Ac As Cc]
+27.0 +24.8 88 +39 +39 очень
душно
1009.3 1008.9
12 19.03 С 4 8000 м слаб. дождь 10/3 540 м
[Sc As op]
+25.4 +24.6 95 +36 +36 очень
душно
1011.8 1011.4 +29.4 6
15 19.03 СВ 3 15 км {ливн. осадки, дождь} 8/3 600 м
[Cu med, cong Ac As Cs]
+26.0 +24.4 91 +36 +36 очень
душно
1012.4 1012.0 12
18 19.03 СВ 3 15 км {ливн. осадки, дождь} 10/4 570 м
[Cu med, cong Ac As]
+25.5 +23.8 90 +35 +35 очень
душно
1010.1 1009.7 15
21 19.03 СВ 6 12 км {ливн. осадки} 10/4 570 м
[Cu med, cong Ac As]
+26.2 +24.6 91 +37 +37 очень
душно
1010.5 1010.1 2
00 20.03 СВ 6 8000 м осадки на расстоянии {ливн. осадки} 9/3 570 м
[Cb cap Ac As]
+27.4 +24.2 83 +38 +39 очень
душно
1012.2 1011.8 +24.4 23
03 20.03 СВ 7 15 км {ливн. осадки} 9/3 600 м
[Cb calv Cs]
+28.6 +24.1 77 +40 +43 очень
душно
1012.1 1011.7 0.2
06 20.03 СВ 4 15 км в посл. час ливневой дождь 6/1 570 м
[Cb cap Cs]
+27.8 +23.2 76 +37 +45 очень
душно
1010.1 1009.7 0.2
09 20.03 С 3 15 км осадки на расстоянии 6/1 570 м
[Cb cap Cs]
+28.4 +23.9 77 +39 +40 очень
душно
1010.1 1009.7
12 20.03 СВ 2 15 км 3/1 600 м
[Cu med, cong Ci fib]
+26.8 +23.3 81 +36 +36 очень
душно
1012.1 1011.7 +29.2
15 20.03 СЗ 1 15 км 4/4 600 м
[Cu med, cong Ci fib]
+24.7 +23.5 93 +33 +33 очень
душно
1013.0 1012.6
18 20.03 З 2 15 км 3/3 600 м
[Cu med, cong Ci fib]
+23.6 +22.5 94 +31 +31 очень
душно
1011.0 1010.6
21 20.03 З 1 15 км 1/1 600 м
[Cu med, cong Cs]
+22.8 +22.0 95 +31 +31 очень
душно
1011.4 1011.0
00 21.03 З 1 15 км 6/6 600 м
[Cu med, cong Ci fib]
+26.4 +24.3 88 +37 +40 очень
душно
1013.2 1012.8 +22.4 0.2
03 21.03 В 4 15 км 4/4 600 м
[Cu med, cong]
+29.2 +23.0 69 +39 +48 очень
душно
1012.7 1012.3
06 21.03 В 5 15 км 3/3 600 м
[Cu med, cong Ci fib]
+28.8 +23.3 72 +39 +44 очень
душно
1010.4 1010.0
09 21.03 СВ 4 15 км 3/3 600 м
[Cu med, cong Ci sp]
+28.2 +22.5 71 +37 +37 очень
душно
1010.4 1010.0
12 21.03 С 2 15 км 1/1 600 м
[Cu med, cong Ci fib]
+26.7 +23.6 83 +36 +36 очень
душно
1011.8 1011.4 +30.4
15 21.03 ЮЗ 2 15 км 1/1 600 м
[Cu med, cong Ci fib]
+25.2 +23.3 89 +34 +34 очень
душно
1012.6 1012.2
18 21.03 З 2 15 км 1/1 600 м
[Cu med, cong]
+23.2 +22.1 94 +32 +32 очень
душно
1011.0 1010.6
21 21.03 З 2 15 км 8/1 600 м
[Cu med, cong Ac trans]
+22.4 +21.6 95 +30 +30 очень
душно
1011.0 1010.6
00 22.03 СЗ 1 15 км 4/3 600 м
[Cu Sc Ci fib]
+27.1 +23.8 82 +37 +43 очень
душно
1013.4 1013.0 +21.8
03 22.03 В 6 15 км 4/3 600 м
[Cu med, cong Ci fib]
+27.8 +23.1 76 +37 +43 очень
душно
1012.9 1012.5
06 22.03 В 4 15 км 1/1 600 м
[Cu med, cong]
+28.5 +22.4 70 +37 +46 очень
душно
1010.2 1009.8
09 22.03 СВ 4 15 км 6/6 600 м
[Cu med, cong Ci fib]
+28.2 +23.1 74 +38 +38 очень
душно
1009.8 1009.4
12 22.03 С 2 15 км 3/1 600 м
[Cu med, cong Cs]
+27.2 +23.2 79 +37 +37 очень
душно
1011.8 1011.4 +29.4
15 22.03 СЗ 1 15 км 6/1 600 м
[Cu med, cong Ac cuf]
+25.5 +23.0 86 +34 +34 очень
душно
1012.9 1012.5
18 22.03 З 1 15 км 3/1 600 м
[Cu med, cong Ci fib]
+24.2 +22.4 90 +32 +32 очень
душно
1011.5 1011.1
21 22.03 З 2 15 км 9/3 600 м
[Cu med, cong Ac As]
+23.2 +22.0 93 +32 +32 очень
душно
1011.2 1010.8
00 23.03 СЗ 2 15 км 3/3 600 м
[Cu med, cong]
+27.0 +23.4 81 +37 +42 очень
душно
1013.2 1012.8 +22.5
03 23.03 В 5 15 км 3/3 600 м
[Cu med, cong Ci fib]
+28.8 +22.9 70 +38 +46 очень
душно
1013.2 1012.8
06 23.03 СВ 5 15 км 3/1 600 м
[Cu med, cong Cs]
+29.0 +22.2 67 +38 +44 очень
душно
1010.6 1010.2
09 23.03 СВ 3 15 км 1/1 600 м
[Cu med, cong Ci fib]
+28.1 +22.1 70 +37 +37 очень
душно
1011.1 1010.7
12 23.03 З 1 15 км 3/3 600 м
[Cu med, cong Ci fib]
+26.2 +23.5 85 +36 +36 очень
душно
1012.4 1012.0 +29.7
15 23.03 СВ 2 15 км 1/1 600 м
[Cu med, cong]
+26.8 +22.7 78 +35 +35 очень
душно
1013.0 1012.6
18 23.03 З 2 15 км 6/3 600 м
[Cu med, cong Ac cuf]
+23.8 +21.9 89 +31 +31 очень
душно
1011.6 1011.2
21 23.03 СЗ 2 15 км 6/3 600 м
[Cu med, cong Ac trans Cs]
+23.2 +21.8 92 +31 +31 очень
душно
1011.9 1011.5
00 24.03 С 3 15 км 3/3 600 м
[Cu med, cong Cs]
+28.1 +22.7 73 +37 +42 очень
душно
1013.4 1013.0 +22.5
03 24.03 СВ 5 15 км 4/4 600 м
[Cu med, cong Ci fib]
+29.2 +20.7 60 +36 +43 очень
душно
1012.9 1012.5
06 24.03 СВ 4 15 км 9/4 570 м
[Cu Sc Ac As]
+28.5 +21.9 67 +37 +39 очень
душно
1010.8 1010.4
09 24.03 СВ 4 15 км 4/4 600 м
[Cu med, cong Ci fib]
+27.8 +22.6 73 +37 +37 очень
душно
1010.5 1010.1
12 24.03 С 3 15 км 10/4 600 м
[Cu med, cong Cs]
+27.3 +20.6 67 +34 +34 очень
душно
1012.9 1012.5 +29.8
15 24.03 С 3 15 км 9/1 600 м
[Cu med, cong Ac trans]
+26.7 +21.6 74 +34 +34 очень
душно
1013.3 1012.9
18 24.03 З 2 15 км 3/1 600 м
[Cu med, cong Ci fib]
+23.8 +21.6 87 +30 +30 очень
душно
1011.8 1011.4

 

Местоположение метеостанции Хинатуан (Филиппины): широта 8.37 долгота 126.33 высота над уровнем моря 3 м.

В архиве по умолчанию представлена погода в Хинатуане за последнюю неделю. Архивные данные за месяц целиком и за предыдущие месяцы, начиная с января 2011 года, Вы можете получить, выбрав интересующий диапазон дат из раскрывающегося списка и нажав кнопку "Ввод!".


*Определитесь, кто Вы:
робот инопланетянин человек

Внимание! Время в таблицах - всемирное. Для получения местного времени необходимо прибавить поправку, которая равна 8 ч.

Смотрите также архив погоды в соседних городах и на ближайших метеорологических станциях:

Погода в Бутуане (Филиппины) (110 км)
Погода в Малайбалае (Филиппины) (140 км)
Погода в Давао (Филиппины) (158 км)
Погода в Серигао Сити (Филиппины) (183 км)
Погода в Кагаян-де-Оро (Филиппины) (226 км)
Погода в Маасине (Филиппины) (256 км)
Погода в Котобато (Филиппины) (268 км)
Погода в Генерал-Сантосе (Филиппины) (281 км)
Погода в Гуиуане (Филиппины) (303 км)
Погода в Тагбиларане (Филиппины) (305 км)

Пояснения к столбцам:

Ветер - указаны скорость ветра в м/с - средняя за 10 мин, порывы в срок и между сроками (в фигурных скобках) и направление, откуда дует ветер: С - северный, СВ - северо-восточный, В - восточный, ЮВ - юго-восточный, Ю - южный, ЮЗ - юго-западный, З - западный, СЗ - северо-западный.
Видимость - горизонтальная дальность видимости в метрах или километрах. При видимости от 1 до 10 км при отсутствии осадков обычно наблюдается дымка, при ухудшении видимости до 1 км и менее - туман. В сухую погоду видимость может ухудшаться дымом, пылью или мглою.
Явления - указаны атмосферные явления, наблюдавшиеся в срок или в последний час перед сроком; фигурными скобками обозначены явления, наблюдавшиеся между сроками (за 1-3 часа до срока); квадратными скобками обозначены град или гололедные отложения с указанием их диаметра в мм.
Облачность - указаны через наклонную черту общая и нижняя облачность в баллах и высота нижней границы облаков в метрах; квадратными скобками обозначены формы облаков: Ci - перистые, Cs - перисто-слоистые, Cc - перисто-кучевые, Ac - высококучевые, As - высокослоистые, Sc - слоисто-кучевые, Ns - слоисто-дождевые, Cu - кучевые, Cb - кучево-дождевые. Подробнее классификацию облаков см. в Атласе облаков (PDF).
T - Температура воздуха - температура, измеренная на высоте 2 м над землей.
Td - Температура точки росы - температура, при понижении до которой содержащийся в воздухе водяной пар достигнет насыщения.
f - Относительная влажность воздуха - влажноcть воздуха, измеренная на высоте 2 м над землей.
Te - Эффективная температура - температура, которую ощущает одетый по сезону человек в тени. Характеристика душности погоды. При расчете учитывается влияние влажности воздуха и скорости ветра на теплоощущения человека.
Tes - Эффективная температура на солнце - температура, которую ощущает человек, с поправкой на солнечный нагрев. Характеристика знойности погоды. Зависит от высоты солнца над горизонтом, облачности и скорости ветра. Ночью, в пасмурную погоду, а также при ветре 12 м/с и более поправка равна нулю.
P - Атмосферное давление - приведенное к уровню моря атмосферное давление.
Po - Атмосферное давление - измеренное на уровне метеостанции атмосферное давление.
Tmin - Минимальная температура - минимум температуры воздуха на высоте 2 м над землей.
Tmax - Максимальная температура - максимум температуры воздуха на высоте 2 м над землей.
R - Количество осадков - Количество выпавших осадков за период времени, мм. При наведении курсора мыши на число - период времени, за который выпало указанное количество осадков.
R24 - Количество осадков - Количество выпавших осадков за 24 часа, мм.
S - Снежный покров - Высота снежного покрова, см. При наведении курсора мыши на число - состояние снежного покрова и степень покрытия местности в баллах.